• In Hungary
  • List of Countries
  • For 7 days
  • Water Temperature
  • Satellite Maps
  • Weather Map
  • News
  • Weather Widgets
  • user-avatar
    Login

    Hourly Weather Chopda

    Today, 14 November, Wednesday

    Time Temperature Precipitation Wind Pressure Humidity
    00:00 +26°C° 0 mm 1 mps 741 mmHg 29%
    01:00 +26°C° 0 mm 1 mps 740 mmHg 30%
    02:00 +25°C° 0 mm 1 mps 740 mmHg 31%
    03:00 +25°C° 0 mm 1 mps 740 mmHg 32%
    04:00 +24°C° 0 mm 1 mps 741 mmHg 32%
    05:00 +24°C° 0 mm 1 mps 741 mmHg 33%
    06:00 +25°C° 0 mm 1 mps 741 mmHg 32%
    07:00 +27°C° 0 mm 1 mps 742 mmHg 31%
    08:00 +28°C° 0 mm 1 mps 742 mmHg 30%
    09:00 +30°C° 0 mm 1 mps 742 mmHg 28%
    10:00 +32°C° 0 mm 1 mps 742 mmHg 25%
    11:00 +34°C° 0 mm 1 mps 742 mmHg 22%
    12:00 +34°C° 0 mm 1 mps 741 mmHg 21%
    13:00 +35°C° 0 mm 1 mps 741 mmHg 20%
    14:00 +36°C° 0 mm 1 mps 740 mmHg 19%
    15:00 +34°C° 0 mm 1 mps 740 mmHg 21%
    16:00 +33°C° 0 mm 1 mps 740 mmHg 23%
    17:00 +32°C° 0 mm 1 mps 740 mmHg 25%
    18:00 +31°C° 0 mm 1 mps 740 mmHg 26%
    19:00 +30°C° 0 mm 1 mps 741 mmHg 26%
    20:00 +29°C° 0 mm 1 mps 741 mmHg 27%
    21:00 +29°C° 0 mm 1 mps 742 mmHg 28%
    22:00 +28°C° 0 mm 1 mps 742 mmHg 29%
    23:00 +27°C° 0 mm 1 mps 742 mmHg 30%

    Tomorrow, 15 November, Thursday

    Time Temperature Precipitation Wind Pressure Humidity
    00:00 +27°C° 0 mm 1 mps 742 mmHg 31%
    01:00 +27°C° 0 mm 1 mps 742 mmHg 32%
    02:00 +26°C° 0 mm 1 mps 742 mmHg 33%
    03:00 +26°C° 0 mm 1 mps 742 mmHg 33%
    04:00 +25°C° 0 mm 1 mps 742 mmHg 34%
    05:00 +25°C° 0 mm 1 mps 742 mmHg 35%
    06:00 +26°C° 0 mm 1 mps 743 mmHg 33%
    07:00 +27°C° 0 mm 1 mps 743 mmHg 32%
    08:00 +29°C° 0 mm 1 mps 744 mmHg 30%
    09:00 +31°C° 0 mm 2 mps 744 mmHg 27%
    10:00 +32°C° 0 mm 2 mps 744 mmHg 24%
    11:00 +35°C° 0 mm 2 mps 744 mmHg 22%
    12:00 +36°C° 0 mm 2 mps 743 mmHg 20%
    13:00 +36°C° 0 mm 2 mps 743 mmHg 19%
    14:00 +37°C° 0 mm 2 mps 742 mmHg 18%
    15:00 +36°C° 0 mm 2 mps 742 mmHg 20%
    16:00 +35°C° 0 mm 2 mps 742 mmHg 22%
    17:00 +34°C° 0 mm 2 mps 742 mmHg 24%
    18:00 +31°C° 0 mm 2 mps 742 mmHg 25%
    19:00 +30°C° 0 mm 2 mps 743 mmHg 26%
    20:00 +29°C° 0 mm 2 mps 743 mmHg 26%
    21:00 +29°C° 0 mm 2 mps 743 mmHg 27%
    22:00 +28°C° 0 mm 2 mps 743 mmHg 28%
    23:00 +28°C° 0 mm 2 mps 743 mmHg 28%

    Day after tomorrow, 16 November, Friday

    Time Temperature Precipitation Wind Pressure Humidity
    00:00 +27°C° 0 mm 2 mps 743 mmHg 30%
    01:00 +26°C° 0 mm 2 mps 743 mmHg 32%
    02:00 +26°C° 0 mm 1 mps 743 mmHg 34%
    03:00 +25°C° 0 mm 1 mps 743 mmHg 34%
    04:00 +25°C° 0 mm 1 mps 743 mmHg 35%
    05:00 +24°C° 0 mm 1 mps 743 mmHg 36%
    06:00 +25°C° 0 mm 2 mps 743 mmHg 34%
    07:00 +27°C° 0 mm 2 mps 744 mmHg 31%
    08:00 +28°C° 0 mm 2 mps 744 mmHg 29%
    09:00 +30°C° 0 mm 2 mps 744 mmHg 26%
    10:00 +32°C° 0 mm 2 mps 744 mmHg 23%
    11:00 +35°C° 0 mm 3 mps 744 mmHg 20%
    12:00 +35°C° 0 mm 2 mps 743 mmHg 19%
    13:00 +36°C° 0 mm 2 mps 742 mmHg 19%
    14:00 +36°C° 0 mm 2 mps 742 mmHg 18%
    15:00 +35°C° 0 mm 2 mps 742 mmHg 20%
    16:00 +34°C° 0 mm 2 mps 741 mmHg 22%
    17:00 +32°C° 0 mm 2 mps 741 mmHg 24%
    18:00 +31°C° 0 mm 2 mps 742 mmHg 24%
    19:00 +30°C° 0 mm 2 mps 742 mmHg 24%
    20:00 +29°C° 0 mm 2 mps 743 mmHg 24%
    21:00 +28°C° 0 mm 2 mps 743 mmHg 24%
    22:00 +27°C° 0 mm 2 mps 743 mmHg 25%
    23:00 +27°C° 0 mm 1 mps 743 mmHg 25%

    17 November, Saturday

    Time Temperature Precipitation Wind Pressure Humidity
    00:00 +26°C° 0 mm 1 mps 743 mmHg 26%
    01:00 +26°C° 0 mm 1 mps 742 mmHg 27%
    02:00 +23°C° 0 mm 0 mps 742 mmHg 28%
    03:00 +23°C° 0 mm 0 mps 742 mmHg 29%
    04:00 +24°C° 0 mm 1 mps 742 mmHg 29%
    05:00 +24°C° 0 mm 1 mps 742 mmHg 30%
    06:00 +25°C° 0 mm 1 mps 742 mmHg 29%
    07:00 +26°C° 0 mm 1 mps 743 mmHg 28%
    08:00 +28°C° 0 mm 1 mps 744 mmHg 27%
    09:00 +29°C° 0 mm 1 mps 743 mmHg 24%
    10:00 +31°C° 0 mm 1 mps 743 mmHg 22%
    11:00 +34°C° 0 mm 2 mps 743 mmHg 19%
    12:00 +34°C° 0 mm 1 mps 742 mmHg 18%
    13:00 +34°C° 0 mm 1 mps 741 mmHg 17%
    14:00 +35°C° 0 mm 1 mps 740 mmHg 16%
    15:00 +34°C° 0 mm 1 mps 740 mmHg 18%
    16:00 +33°C° 0 mm 1 mps 740 mmHg 20%
    17:00 +32°C° 0 mm 1 mps 740 mmHg 22%
    18:00 +31°C° 0 mm 1 mps 741 mmHg 23%
    19:00 +30°C° 0 mm 1 mps 741 mmHg 23%
    20:00 +29°C° 0 mm 1 mps 742 mmHg 24%
    21:00 +28°C° 0 mm 1 mps 742 mmHg 24%
    22:00 +27°C° 0 mm 1 mps 742 mmHg 25%
    23:00 +27°C° 0 mm 1 mps 742 mmHg 26%

    18 November, Sunday

    Time Temperature Precipitation Wind Pressure Humidity
    00:00 +26°C° 0 mm 1 mps 742 mmHg 27%
    01:00 +26°C° 0 mm 1 mps 741 mmHg 29%
    02:00 +23°C° 0 mm 0 mps 741 mmHg 30%
    03:00 +25°C° 0 mm 1 mps 741 mmHg 30%
    04:00 +25°C° 0 mm 1 mps 741 mmHg 31%
    05:00 +24°C° 0 mm 1 mps 741 mmHg 31%
    06:00 +25°C° 0 mm 1 mps 742 mmHg 30%
    07:00 +27°C° 0 mm 1 mps 743 mmHg 29%
    08:00 +28°C° 0 mm 2 mps 743 mmHg 29%
    09:00 +30°C° 0 mm 2 mps 743 mmHg 26%
    10:00 +32°C° 0 mm 2 mps 743 mmHg 23%
    11:00 +35°C° 0 mm 2 mps 743 mmHg 20%
    12:00 +35°C° 0 mm 2 mps 742 mmHg 20%
    13:00 +36°C° 0 mm 2 mps 741 mmHg 19%
    14:00 +35°C° 0 mm 1 mps 740 mmHg 18%
    15:00 +34°C° 0 mm 1 mps 740 mmHg 20%
    16:00 +33°C° 0 mm 1 mps 740 mmHg 22%
    17:00 +32°C° 0 mm 2 mps 740 mmHg 24%
    18:00 +31°C° 0 mm 1 mps 741 mmHg 25%
    19:00 +30°C° 0 mm 1 mps 742 mmHg 26%
    20:00 +29°C° 0 mm 1 mps 742 mmHg 27%
    21:00 +29°C° 0 mm 1 mps 742 mmHg 28%
    22:00 +28°C° 0 mm 1 mps 742 mmHg 29%
    23:00 +27°C° 0 mm 1 mps 742 mmHg 30%

    19 November, Monday

    Time Temperature Precipitation Wind Pressure Humidity
    00:00 +27°C° 0 mm 1 mps 742 mmHg 31%
    01:00 +27°C° 0 mm 1 mps 742 mmHg 32%
    02:00 +26°C° 0 mm 1 mps 741 mmHg 34%
    03:00 +26°C° 0 mm 1 mps 742 mmHg 34%
    04:00 +25°C° 0 mm 1 mps 742 mmHg 35%
    05:00 +25°C° 0 mm 2 mps 742 mmHg 36%
    06:00 +26°C° 0 mm 2 mps 743 mmHg 35%
    07:00 +27°C° 0 mm 2 mps 744 mmHg 34%
    08:00 +28°C° 0 mm 2 mps 744 mmHg 33%
    09:00 +30°C° 0 mm 2 mps 744 mmHg 30%
    10:00 +32°C° 0 mm 2 mps 744 mmHg 28%
    11:00 +35°C° 0 mm 2 mps 744 mmHg 25%
    12:00 +36°C° 0 mm 2 mps 743 mmHg 23%
    13:00 +36°C° 0 mm 2 mps 743 mmHg 22%
    14:00 +36°C° 0 mm 1 mps 742 mmHg 21%
    15:00 +35°C° 0 mm 1 mps 742 mmHg 23%
    16:00 +34°C° 0 mm 1 mps 742 mmHg 25%
    17:00 +33°C° 0 mm 1 mps 742 mmHg 27%
    18:00 +32°C° 0 mm 2 mps 743 mmHg 28%
    19:00 +31°C° 0 mm 2 mps 743 mmHg 28%
    20:00 +29°C° 0 mm 2 mps 744 mmHg 29%
    21:00 +29°C° 0 mm 2 mps 744 mmHg 30%
    22:00 +29°C° 0 mm 2 mps 744 mmHg 30%
    23:00 +28°C° 0 mm 2 mps 744 mmHg 31%
    Show more